NQ9F Weather Reports


time (UTC)temp
C
wind
direction
speed
KPH
gust
KPH
rain 1hr
cm
rain 24hr
cm
rain mn
cm
humidity
%
barometer
mb
20260906221035 36 136 17.7 19.3 0.00 0.00 0.00 40 1011.5
20260906220529 36 153 17.7 29.0 0.00 0.00 0.00 41 1011.5
20260906220024 36 136 12.9 20.9 0.00 0.00 0.00 41 1011.7
20260906215523 36 190 3.2 16.1 0.00 0.00 0.00 41 1011.8
20260906215021 35 124 11.3 16.1 0.00 0.00 0.00 42 1011.8
20260906214520 35 120 11.3 19.3 0.00 0.00 0.00 42 1011.9
20260906214016 36 132 6.4 27.4 0.00 0.00 0.00 41 1012.1
20260906213515 36 117 8.0 25.7 0.00 0.00 0.00 41 1011.9
20260906213010 36 110 25.7 29.0 0.00 0.00 0.00 41 1011.9
20260906212502 35 70 8.0 17.7 0.00 0.00 0.00 42 1012.2
20260906211958 35 83 16.1 24.1 0.00 0.00 0.00 42 1012.3
20260906211452 35 136 8.0 27.4 0.00 0.00 0.00 42 1012.4
20260906210947 36 115 12.9 20.9 0.00 0.00 0.00 41 1012.3
20260906210443 36 156 4.8 19.3 0.00 0.00 0.00 41 1012.6
20260906205936 35 143 22.5 27.4 0.00 0.00 0.00 42 1012.3
20260906205433 36 130 11.3 24.1 0.00 0.00 0.00 41 1012.4
20260906204928 36 127 20.9 25.7 0.00 0.00 0.00 40 1012.5
20260906204428 36 142 20.9 25.7 0.00 0.00 0.00 42 1012.5
20260906203927 35 156 16.1 22.5 0.00 0.00 0.00 43 1012.7
20260906203422 35 153 25.7 32.2 0.00 0.00 0.00 43 1012.6
20260906202920 36 143 27.4 30.6 0.00 0.00 0.00 42 1012.7
20260906202419 35 150 11.3 20.9 0.00 0.00 0.00 44 1012.8
20260906201914 35 101 19.3 29.0 0.00 0.00 0.00 44 1012.9
20260906201408 35 111 6.4 17.7 0.00 0.00 0.00 44 1012.9
20260906200904 35 132 8.0 20.9 0.00 0.00 0.00 42 1012.9
20260906200359 35 148 19.3 25.7 0.00 0.00 0.00 42 1013.1
20260906195854 36 149 20.9 24.1 0.00 0.00 0.00 42 1013.0
20260906195350 35 182 4.8 20.9 0.00 0.00 0.00 43 1013.1
20260906194846 35 48 14.5 24.1 0.00 0.00 0.00 44 1013.0
20260906194342 35 122 14.5 27.4 0.00 0.00 0.00 43 1013.3
20260906193837 35 113 9.7 27.4 0.00 0.00 0.00 43 1013.4
20260906193332 35 156 16.1 30.6 0.00 0.00 0.00 43 1013.2
20260906192828 36 143 22.5 24.1 0.00 0.00 0.00 44 1013.4
20260906192327 35 92 20.9 20.9 0.00 0.00 0.00 43 1013.4
20260906191826 35 161 16.1 30.6 0.00 0.00 0.00 42 1013.5
20260906191316 35 151 12.9 25.7 0.00 0.00 0.00 44 1013.5
20260906190816 35 177 17.7 20.9 0.00 0.00 0.00 43 1013.6
20260906190315 35 118 9.7 38.6 0.00 0.00 0.00 43 1013.4
20260906185815 35 169 4.8 17.7 0.00 0.00 0.00 44 1013.6
20260906185314 36 136 22.5 27.4 0.00 0.00 0.00 43 1013.8
20260906184809 35 163 8.0 11.3 0.00 0.00 0.00 45 1013.6
20260906184304 35 146 12.9 27.4 0.00 0.00 0.00 44 1013.7
20260906183759 35 113 8.0 17.7 0.00 0.00 0.00 44 1013.8
20260906183256 35 121 12.9 24.1 0.00 0.00 0.00 44 1013.7
20260906182755 34 134 17.7 27.4 0.00 0.00 0.00 45 1013.8
20260906182251 35 160 14.5 19.3 0.00 0.00 0.00 45 1013.8
20260906181746 35 102 12.9 16.1 0.00 0.00 0.00 46 1014.0
20260906181242 34 137 8.0 29.0 0.00 0.00 0.00 47 1013.9
20260906180737 35 172 12.9 19.3 0.00 0.00 0.00 47 1014.1
20260906180232 34 99 4.8 16.1 0.00 0.00 0.00 48 1014.2
20260906175730 35 122 24.1 29.0 0.00 0.00 0.00 47 1014.2
20260906175225 33 183 6.4 20.9 0.00 0.00 0.00 49 1014.4
20260906174724 34 131 11.3 14.5 0.00 0.00 0.00 49 1014.7
20260906174218 35 120 11.3 20.9 0.00 0.00 0.00 45 1014.6
20260906173713 34 137 16.1 20.9 0.00 0.00 0.00 46 1014.8
20260906173209 33 142 19.3 33.8 0.00 0.00 0.00 47 1014.7
20260906172703 33 151 11.3 27.4 0.00 0.00 0.00 50 1014.7
20260906172159 33 137 17.7 29.0 0.00 0.00 0.00 49 1014.9
20260906171658 34 121 25.7 33.8 0.00 0.00 0.00 48 1014.8
20260906171154 33 79 8.0 20.9 0.00 0.00 0.00 49 1015.1
20260906170650 33 136 1.6 17.7 0.00 0.00 0.00 50 1015.0
20260906170149 33 156 8.0 25.7 0.00 0.00 0.00 51 1015.1
20260906165646 34 161 8.0 12.9 0.00 0.00 0.00 50 1015.1
20260906165141 33 89 8.0 17.7 0.00 0.00 0.00 50 1015.1
20260906164639 33 119 6.4 24.1 0.00 0.00 0.00 52 1015.1
20260906164135 32 141 8.0 19.3 0.00 0.00 0.00 52 1015.3
20260906163631 33 119 11.3 20.9 0.00 0.00 0.00 51 1015.3
20260906163127 33 156 8.0 16.1 0.00 0.00 0.00 53 1015.2
20260906162624 32 81 11.3 16.1 0.00 0.00 0.00 54 1015.3
20260906162118 32 131 20.9 24.1 0.00 0.00 0.00 54 1015.4
20260906161613 33 145 8.0 20.9 0.00 0.00 0.00 54 1015.2
20260906161112 32 148 4.8 8.0 0.00 0.00 0.00 55 1015.3
20260906160611 33 104 8.0 12.9 0.00 0.00 0.00 54 1015.2
20260906160110 32 149 4.8 16.1 0.00 0.00 0.00 55 1015.3
20260906155608 33 137 4.8 9.7 0.00 0.00 0.00 54 1015.2
20260906155104 32 141 1.6 8.0 0.00 0.00 0.00 58 1015.3
20260906154559 32 71 3.2 11.3 0.00 0.00 0.00 58 1015.5
20260906154057 32 114 4.8 9.7 0.00 0.00 0.00 60 1015.3
20260906153556 32 109 3.2 14.5 0.00 0.00 0.00 61 1015.2
20260906153051 32 33 1.6 3.2 0.00 0.00 0.00 60 1015.1
20260906152550 31 81 4.8 9.7 0.00 0.00 0.00 63 1015.2
20260906152045 32 107 4.8 8.0 0.00 0.00 0.00 61 1015.1
20260906151540 31 50 3.2 4.8 0.00 0.00 0.00 62 1015.0
20260906151036 31 200 4.8 8.0 0.00 0.00 0.00 65 1014.9
20260906150531 31 145 6.4 8.0 0.00 0.00 0.00 63 1014.9
20260906150027 30 223 0.0 9.7 0.00 0.00 0.00 67 1014.8
20260906145525 30 154 0.0 8.0 0.00 0.00 0.00 66 1015.0
20260906145020 30 181 1.6 8.0 0.00 0.00 0.00 67 1014.9
20260906144514 30 36 1.6 8.0 0.00 0.00 0.00 67 1014.9
20260906144010 30 126 6.4 9.7 0.00 0.00 0.00 69 1014.7
20260906143504 29 138 3.2 11.3 0.00 0.00 0.00 70 1015.0
20260906143001 28 135 9.7 9.7 0.00 0.00 0.00 72 1014.7
20260906142454 28 159 8.0 12.9 0.00 0.00 0.00 73 1014.7
20260906141949 28 167 8.0 11.3 0.00 0.00 0.00 73 1014.8
20260906141448 28 151 8.0 11.3 0.00 0.00 0.00 73 1014.8
20260906140944 27 150 9.7 17.7 0.00 0.00 0.00 76 1015.0
20260906140433 27 141 6.4 12.9 0.00 0.00 0.00 76 1015.0
20260906135931 27 146 9.7 17.7 0.00 0.00 0.00 78 1014.9
20260906135430 27 138 6.4 19.3 0.00 0.00 0.00 78 1014.8
20260906134926 27 137 6.4 14.5 0.00 0.00 0.00 78 1014.9
20260906134421 27 130 6.4 14.5 0.00 0.00 0.00 79 1014.8
20260906133916 27 126 9.7 14.5 0.00 0.00 0.00 80 1014.8
20260906133412 26 131 11.3 17.7 0.00 0.00 0.00 81 1014.8
20260906132907 26 136 9.7 14.5 0.00 0.00 0.00 81 1014.9
20260906132402 26 141 9.7 16.1 0.00 0.00 0.00 81 1014.9
20260906131858 26 147 11.3 14.5 0.00 0.00 0.00 82 1014.8
20260906131353 26 150 8.0 14.5 0.00 0.00 0.00 82 1014.6
20260906130849 25 145 9.7 14.5 0.00 0.00 0.00 82 1014.6
20260906130348 25 143 6.4 12.9 0.00 0.00 0.00 83 1014.6
20260906125848 25 134 8.0 12.9 0.00 0.00 0.00 83 1014.4
20260906125345 25 131 6.4 9.7 0.00 0.00 0.00 83 1014.6
20260906124839 25 136 4.8 12.9 0.00 0.00 0.00 83 1014.5
20260906124336 25 134 6.4 11.3 0.00 0.00 0.00 84 1014.6
20260906123835 25 129 6.4 12.9 0.00 0.00 0.00 84 1014.6
20260906123330 25 111 12.9 12.9 0.00 0.00 0.00 85 1014.4
20260906122829 25 134 9.7 14.5 0.00 0.00 0.00 85 1014.6
20260906122324 25 129 11.3 14.5 0.00 0.00 0.00 85 1014.8
20260906121821 25 133 8.0 12.9 0.00 0.00 0.00 85 1014.4
20260906121317 25 134 8.0 14.5 0.00 0.00 0.00 85 1014.3
20260906120813 25 125 6.4 12.9 0.00 0.00 0.00 85 1014.2
20260906120309 25 119 9.7 11.3 0.00 0.00 0.00 85 1013.9
20260906115805 25 123 4.8 11.3 0.00 0.00 0.00 85 1014.0
20260906115300 25 126 8.0 8.0 0.00 0.00 0.00 85 1013.9
20260906114759 25 122 4.8 8.0 0.00 0.00 0.00 84 1013.7
20260906114254 25 129 4.8 8.0 0.00 0.00 0.00 85 1014.0
20260906113749 25 141 3.2 4.8 0.00 0.00 0.00 85 1014.0
20260906113249 25 110 3.2 6.4 0.00 0.00 0.00 85 1013.9
20260906112748 25 112 3.2 9.7 0.00 0.00 0.00 85 1013.8
20260906112245 25 122 6.4 11.3 0.00 0.00 0.00 85 1013.9
20260906111739 25 126 3.2 11.3 0.00 0.00 0.00 85 1013.8
20260906111233 25 111 4.8 11.3 0.00 0.00 0.00 85 1013.7
20260906110728 25 127 4.8 9.7 0.00 0.00 0.00 84 1013.7
20260906110224 25 146 8.0 11.3 0.00 0.00 0.00 84 1013.8
20260906105723 25 137 6.4 9.7 0.00 0.00 0.00 84 1013.8
20260906105219 25 116 0.0 4.8 0.00 0.00 0.00 84 1013.7
20260906104719 25 124 1.6 4.8 0.00 0.00 0.00 84 1013.7
20260906104218 25 123 3.2 6.4 0.00 0.00 0.00 84 1013.4
20260906103716 25 114 4.8 6.4 0.00 0.00 0.00 84 1013.4
20260906103211 25 132 6.4 9.7 0.00 0.00 0.00 84 1013.6
20260906102706 25 117 4.8 9.7 0.00 0.00 0.00 84 1013.5
20260906102205 25 140 4.8 9.7 0.00 0.00 0.00 84 1013.5
20260906101700 25 127 4.8 8.0 0.00 0.00 0.00 84 1013.5
20260906101155 25 142 4.8 9.7 0.00 0.00 0.00 84 1013.5
20260906100650 25 129 3.2 8.0 0.00 0.00 0.00 84 1013.3
20260906100145 25 127 6.4 8.0 0.00 0.00 0.00 83 1013.4
20260906095640 25 132 8.0 9.7 0.00 0.00 0.00 83 1013.5
20260906095135 25 134 3.2 8.0 0.00 0.00 0.00 83 1013.3
20260906094634 25 112 3.2 8.0 0.00 0.00 0.00 83 1013.4
20260906094130 25 133 3.2 8.0 0.00 0.00 0.00 83 1013.4
20260906093626 25 114 3.2 6.4 0.00 0.00 0.00 83 1013.4
20260906093120 25 94 3.2 6.4 0.00 0.00 0.00 82 1013.3
20260906092615 25 66 3.2 4.8 0.00 0.00 0.00 83 1013.2
20260906092110 25 48 0.0 3.2 0.00 0.00 0.00 82 1013.1
20260906091606 25 351 3.2 3.2 0.00 0.00 0.00 82 1012.8
20260906091103 25 338 1.6 3.2 0.00 0.00 0.00 82 1013.1
20260906090557 25 331 3.2 4.8 0.00 0.00 0.00 81 1012.7
20260906090057 26 227 0.0 3.2 0.00 0.00 0.00 81 1012.8
20260906085556 26 195 1.6 4.8 0.00 0.00 0.00 81 1012.8
20260906085051 26 161 6.4 8.0 0.00 0.00 0.00 80 1012.8
20260906084545 26 158 6.4 11.3 0.00 0.00 0.00 80 1012.9
20260906084044 26 145 6.4 11.3 0.00 0.00 0.00 80 1012.9
20260906083540 26 145 16.1 16.1 0.00 0.00 0.00 79 1012.9
20260906083039 26 150 6.4 12.9 0.00 0.00 0.00 79 1012.8
20260906082535 26 156 6.4 12.9 0.00 0.00 0.00 78 1012.7
20260906082031 26 155 6.4 11.3 0.00 0.00 0.00 78 1012.8
20260906081526 26 145 6.4 16.1 0.00 0.00 0.00 78 1012.6
20260906081021 26 157 11.3 16.1 0.00 0.00 0.00 77 1012.5
20260906080518 26 160 6.4 16.1 0.00 0.00 0.00 77 1012.7
20260906080014 26 158 9.7 19.3 0.00 0.00 0.00 77 1012.7
20260906075508 26 153 9.7 14.5 0.00 0.00 0.00 77 1012.8
20260906075002 26 162 11.3 16.1 0.00 0.00 0.00 77 1013.0
20260906074457 26 148 8.0 16.1 0.00 0.00 0.00 77 1013.2
20260906073955 27 160 9.7 16.1 0.00 0.00 0.00 76 1013.0
20260906073450 27 149 11.3 12.9 0.00 0.00 0.00 76 1013.1
20260906072947 27 149 9.7 12.9 0.00 0.00 0.00 76 1013.2
20260906072442 27 150 9.7 12.9 0.00 0.00 0.00 76 1013.2
20260906071938 27 150 8.0 12.9 0.00 0.00 0.00 75 1013.1
20260906071434 27 159 8.0 14.5 0.00 0.00 0.00 75 1013.2
20260906070929 27 164 4.8 14.5 0.00 0.00 0.00 74 1013.0
20260906070425 27 161 9.7 16.1 0.00 0.00 0.00 74 1012.9
20260906065921 27 158 11.3 14.5 0.00 0.00 0.00 74 1012.9
20260906065415 27 151 8.0 16.1 0.00 0.00 0.00 74 1013.0
20260906064910 27 169 6.4 16.1 0.00 0.00 0.00 73 1013.2
20260906064407 27 168 6.4 14.5 0.00 0.00 0.00 73 1013.2
20260906063901 27 167 9.7 16.1 0.00 0.00 0.00 73 1013.4
20260906063356 27 161 9.7 12.9 0.00 0.00 0.00 73 1013.2
20260906062851 28 168 6.4 12.9 0.00 0.00 0.00 72 1012.9
20260906062350 28 169 6.4 12.9 0.00 0.00 0.00 72 1013.2
20260906061846 28 162 6.4 11.3 0.00 0.00 0.00 72 1013.4
20260906061342 28 168 8.0 12.9 0.00 0.00 0.00 72 1013.3
20260906060837 28 155 9.7 16.1 0.00 0.00 0.00 72 1013.4
20260906060335 28 160 8.0 14.5 0.00 0.00 0.00 72 1013.5
20260906055830 28 147 12.9 17.7 0.00 0.00 0.00 71 1013.5
20260906055326 28 173 12.9 16.1 0.00 0.00 0.00 71 1013.6
20260906054821 28 161 6.4 12.9 0.00 0.00 0.00 71 1013.5
20260906054316 28 152 11.3 14.5 0.00 0.00 0.00 70 1013.7
20260906053812 28 159 9.7 14.5 0.00 0.00 0.00 70 1013.5
20260906053308 28 180 4.8 12.9 0.00 0.00 0.00 69 1013.6
20260906052802 28 170 8.0 14.5 0.00 0.00 0.00 69 1013.3
20260906052259 28 159 16.1 16.1 0.00 0.00 0.00 69 1013.6
20260906051755 28 158 8.0 14.5 0.00 0.00 0.00 68 1013.4
20260906051249 28 162 9.7 14.5 0.00 0.00 0.00 68 1013.5
20260906050744 28 162 9.7 12.9 0.00 0.00 0.00 67 1013.3
20260906050240 29 157 11.3 12.9 0.00 0.00 0.00 67 1013.6
20260906045738 29 162 8.0 14.5 0.00 0.00 0.00 66 1013.7
20260906045233 29 166 6.4 12.9 0.00 0.00 0.00 66 1013.6
20260906044729 29 170 8.0 11.3 0.00 0.00 0.00 65 1013.5
20260906044224 29 182 4.8 9.7 0.00 0.00 0.00 65 1013.5
20260906043720 29 178 6.4 9.7 0.00 0.00 0.00 65 1013.2
20260906043216 29 166 6.4 9.7 0.00 0.00 0.00 65 1013.4
20260906042715 29 164 8.0 8.0 0.00 0.00 0.00 65 1013.5
20260906042209 29 168 4.8 8.0 0.00 0.00 0.00 64 1013.5
20260906041704 30 154 4.8 9.7 0.00 0.00 0.00 64 1013.3
20260906041159 30 142 9.7 12.9 0.00 0.00 0.00 64 1013.3
20260906040655 30 162 4.8 14.5 0.00 0.00 0.00 63 1013.4
20260906040150 30 144 8.0 12.9 0.00 0.00 0.00 63 1013.4
20260906035645 30 149 11.3 12.9 0.00 0.00 0.00 62 1013.3
20260906035141 30 150 8.0 11.3 0.00 0.00 0.00 62 1013.2
20260906034636 30 141 11.3 12.9 0.00 0.00 0.00 61 1013.4
20260906034130 30 156 8.0 14.5 0.00 0.00 0.00 61 1013.3
20260906033626 30 147 11.3 14.5 0.00 0.00 0.00 60 1013.4
20260906033120 30 146 9.7 14.5 0.00 0.00 0.00 60 1013.3
20260906032618 30 146 8.0 14.5 0.00 0.00 0.00 59 1013.3
20260906032117 30 153 6.4 14.5 0.00 0.00 0.00 59 1013.3
20260906031612 31 142 6.4 16.1 0.00 0.00 0.00 58 1013.2
20260906031108 31 160 12.9 16.1 0.00 0.00 0.00 58 1013.2
20260906030607 31 150 12.9 17.7 0.00 0.00 0.00 57 1013.3
20260906025602 31 150 11.3 17.7 0.00 0.00 0.00 56 1013.2
20260906025100 31 162 12.9 14.5 0.00 0.00 0.00 55 1013.1
20260906024555 31 138 9.7 19.3 0.00 0.00 0.00 54 1013.1
20260906024050 31 158 6.4 25.7 0.00 0.00 0.00 54 1013.0
20260906023546 32 129 11.3 25.7 0.00 0.00 0.00 51 1012.7
20260906023040 32 123 4.8 11.3 0.00 0.00 0.00 49 1012.5
20260906022535 32 149 3.2 8.0 0.00 0.00 0.00 49 1012.5
20260906022031 32 137 4.8 11.3 0.00 0.00 0.00 48 1012.4
20260906021526 32 127 6.4 8.0 0.00 0.00 0.00 48 1012.4
20260906021020 32 103 3.2 11.3 0.00 0.00 0.00 48 1012.4
20260906020520 32 118 4.8 8.0 0.00 0.00 0.00 48 1012.3
20260906020019 32 125 4.8 9.7 0.00 0.00 0.00 48 1012.1
20260906015518 32 107 4.8 9.7 0.00 0.00 0.00 48 1012.2
20260906015018 32 127 3.2 9.7 0.00 0.00 0.00 48 1011.9
20260906014513 32 105 4.8 8.0 0.00 0.00 0.00 47 1011.8
20260906014009 32 128 3.2 6.4 0.00 0.00 0.00 47 1011.9
20260906013504 33 120 4.8 9.7 0.00 0.00 0.00 46 1011.7
20260906013000 33 117 3.2 8.0 0.00 0.00 0.00 46 1011.9
20260906012455 33 104 6.4 11.3 0.00 0.00 0.00 46 1011.6
20260906011954 33 114 4.8 6.4 0.00 0.00 0.00 45 1011.6
20260906011450 33 112 3.2 4.8 0.00 0.00 0.00 45 1011.6
20260906010944 33 132 1.6 8.0 0.00 0.00 0.00 45 1011.8
20260906010439 33 100 1.6 9.7 0.00 0.00 0.00 44 1011.4
20260906005936 33 134 8.0 9.7 0.00 0.00 0.00 44 1011.6
20260906005430 34 123 6.4 8.0 0.00 0.00 0.00 43 1011.4
20260906004928 34 155 0.0 6.4 0.00 0.00 0.00 43 1011.4
20260906004423 34 149 0.0 6.4 0.00 0.00 0.00 43 1011.4
20260906003918 35 117 0.0 9.7 0.00 0.00 0.00 42 1011.5
20260906003413 35 122 4.8 8.0 0.00 0.00 0.00 42 1011.6
20260906002909 35 143 4.8 6.4 0.00 0.00 0.00 41 1011.4
20260906002408 35 158 3.2 8.0 0.00 0.00 0.00 41 1011.5
20260906001904 35 114 4.8 8.0 0.00 0.00 0.00 41 1011.4
20260906001400 35 144 9.7 11.3 0.00 0.00 0.00 41 1011.4
20260906000859 35 94 3.2 12.9 0.00 0.00 0.00 41 1011.4
20260906000356 36 133 4.8 11.3 0.00 0.00 0.00 40 1011.3
20260905235849 36 275 0.0 6.4 0.00 0.00 0.00 40 1011.2
20260905235343 35 117 6.4 11.3 0.00 0.00 0.00 40 1011.4
20260905234838 36 101 12.9 16.1 0.00 0.00 0.00 40 1011.4
20260905234334 36 157 0.0 9.7 0.00 0.00 0.00 40 1011.2
20260905233829 36 144 6.4 19.3 0.00 0.00 0.00 40 1011.3
20260905233324 36 176 6.4 17.7 0.00 0.00 0.00 40 1011.4
20260905232823 36 115 6.4 16.1 0.00 0.00 0.00 40 1011.2
20260905232319 36 74 4.8 11.3 0.00 0.00 0.00 40 1011.2
20260905231815 36 105 4.8 11.3 0.00 0.00 0.00 40 1011.3
20260905231310 36 144 6.4 12.9 0.00 0.00 0.00 39 1011.2
20260905230806 36 155 6.4 11.3 0.00 0.00 0.00 39 1011.2
20260905230304 36 161 8.0 17.7 0.00 0.00 0.00 40 1011.1
20260905225803 36 125 16.1 17.7 0.00 0.00 0.00 40 1011.2
20260905225259 36 147 8.0 16.1 0.00 0.00 0.00 40 1011.1
20260905224758 36 110 9.7 12.9 0.00 0.00 0.00 38 1011.2
20260905224254 36 61 4.8 19.3 0.00 0.00 0.00 39 1011.1
20260905223749 36 137 11.3 16.1 0.00 0.00 0.00 37 1011.0
20260905223246 36 157 8.0 16.1 0.00 0.00 0.00 38 1011.4
20260905222741 36 140 8.0 17.7 0.00 0.00 0.00 37 1011.3
20260905222240 37 60 1.6 9.7 0.00 0.00 0.00 36 1011.2
20260905221736 36 200 8.0 14.5 0.00 0.00 0.00 37 1011.1